This demonstration page uses our WeatherBlox Daily Observations layout. Learn more.

Hourly Observations for January 28, 2016

Temp ( °F °C ) Dew Point ( °F °C ) Humidity (%) Winds ( mph kmh ) Pressure ( in mb ) Visibility ( mi km ) Precip ( " mm )
12:15 am 00:15 Clear 38 3.5 28 -2 68 68 W 10 17 30.12 1020 10 16.0934 0 0
12:35 am 00:35 Clear 38 3.3 28 -2 69 69 W 9 15 30.15 1021 10 16.0934 0 0
12:55 am 00:55 Clear 35 1.8 28 -2.5 73 73 W 9 15 30.15 1021 10 16.0934 0 0
1:15 am 01:15 Clear 35 1.5 28 -2.5 75 75 W 8 13 30.15 1021 10 16.0934 0 0
1:35 am 01:35 Clear 34 1.3 27 -2.6 76 76 W 7 11 30.15 1021 10 16.0934 0 0
1:55 am 01:55 Clear 35 1.5 28 -2.5 75 75 W 7 11 30.12 1020 10 16.0934 0 0
2:15 am 02:15 Clear 33 0.8 28 -2.5 79 79 W 8 13 30.12 1020 10 16.0934 0 0
2:35 am 02:35 Clear 34 1.1 28 -2.3 78 78 W 8 13 30.12 1020 10 16.0934 0 0
2:55 am 02:55 Clear 33 0.8 28 -2.3 80 80 WNW 7 11 30.12 1020 10 16.0934 0 0
3:15 am 03:15 Clear 32 0.2 28 -2.5 82 82 WNW 6 9 30.12 1020 10 16.0934 0 0
3:35 am 03:35 Clear 32 0.1 28 -2.5 83 83 WNW 7 11 30.12 1020 10 16.0934 0 0
3:55 am 03:55 Clear 32 0.1 28 -2.3 84 84 WNW 7 11 30.12 1020 10 16.0934 0 0
4:15 am 04:15 Clear 32 -0.2 27 -2.9 82 82 WNW 7 11 30.12 1020 10 16.0934 0 0
4:35 am 04:35 Clear 32 -0.2 27 -2.8 83 83 WNW 8 13 30.12 1020 10 16.0934 0 0
4:55 am 04:55 Clear 33 0.6 27 -2.7 79 79 WNW 7 11 30.09 1019 10 16.0934 0 0
5:15 am 05:15 Clear 32 0 27 -2.7 82 82 W 8 13 30.09 1019 10 16.0934 0 0
5:35 am 05:35 Clear 33 0.8 27 -2.6 78 78 WNW 9 15 30.09 1019 10 16.0934 0 0
5:55 am 05:55 Clear 32 0.1 27 -2.9 80 80 W 9 15 30.09 1019 10 16.0934 0 0
6:15 am 06:15 Clear 32 0.1 27 -2.6 82 82 WNW 7 11 30.09 1019 10 16.0934 0 0
6:35 am 06:35 Clear 32 0.1 26 -3.1 79 79 WNW 7 11 30.09 1019 10 16.0934 0 0
6:55 am 06:55 Clear 32 0.1 26 -3.1 79 79 WNW 8 13 30.09 1019 10 16.0934 0 0
7:15 am 07:15 Clear 32 0.1 26 -3.1 79 79 WNW 8 13 30.09 1019 10 16.0934 0 0
7:35 am 07:35 Clear 33 0.3 26 -3.1 78 78 WNW 7 11 30.09 1019 10 16.0934 0 0
7:55 am 07:55 Sunny 32 -0.2 26 -3.2 80 80 WNW 8 13 30.09 1019 10 16.0934 0 0
8:15 am 08:15 Sunny 32 0 26 -3.3 79 79 W 7 11 30.12 1020 10 16.0934 0 0
8:35 am 08:35 Sunny 32 0 27 -3 80 80 W 9 15 30.12 1020 10 16.0934 0 0
8:55 am 08:55 Sunny 34 1.1 27 -2.6 77 77 W 9 15 30.12 1020 10 16.0934 0 0
9:15 am 09:15 Sunny 36 2.2 28 -2.1 74 74 WNW 8 13 30.12 1020 10 16.0934 0 0
9:35 am 09:35 Sunny 38 3.3 29 -1.5 71 71 WNW 9 15 30.09 1019 10 16.0934 0 0
9:55 am 09:55 Sunny 40 4.7 30 -1 67 67 WNW 8 13 30.09 1019 10 16.0934 0 0
10:15 am 10:15 Sunny 42 5.5 31 -0.6 65 65 WNW 8 13 30.09 1019 10 16.0934 0 0
10:35 am 10:35 Sunny 44 6.8 32 -0.1 62 62 NW 8 13 30.06 1018 10 16.0934 0 0
11:15 am 11:15 Sunny 46 8 32 -0.1 57 57 NW 13 20 30.06 1018 10 16.0934 0 0
11:35 am 11:35 Sunny 47 8.6 32 -0.1 55 55 NW 12 19 30.06 1018 10 16.0934 0 0
11:55 am 11:55 Sunny 48 9 32 -0.1 53 53 NW 9 15 30.06 1018 10 16.0934 0 0
12:15 pm 12:15 Sunny 49 9.5 32 -0.1 51 51 NNW 8 13 30.03 1017 10 16.0934 0 0
12:35 pm 12:35 Sunny 50 10 32 0 50 50 NW 10 17 30 1016 10 16.0934 0 0
12:55 pm 12:55 Sunny 51 10.5 32 0 49 49 NW 12 19 30 1016 10 16.0934 0 0
1:15 pm 13:15 Sunny 52 11 32 0.1 47 47 NNW 10 17 30 1016 10 16.0934 0 0
1:35 pm 13:35 Sunny 52 11.3 32 -0.2 45 45 NW 10 17 29.97 1015 10 16.0934 0 0
1:55 pm 13:55 Sunny 53 11.4 32 -0.2 45 45 NNW 10 17 29.97 1015 10 16.0934 0 0
2:15 pm 14:15 Sunny 52 11.2 32 0 46 46 NW 7 11 29.97 1015 10 16.0934 0 0
2:35 pm 14:35 Sunny 52 11.3 31 -0.3 45 45 NW 6 9 29.94 1014 10 16.0934 0 0
2:55 pm 14:55 Sunny 52 11.1 32 -0.2 46 46 NNW 5 7 29.94 1014 10 16.0934 0 0
3:15 pm 15:15 Sunny 52 11 32 -0.1 47 47 Calm 29.94 1014 10 16.0934 0 0
3:35 pm 15:35 Sunny 52 11.2 32 0 46 46 N 3 6 29.94 1014 10 16.0934 0 0
3:55 pm 15:55 Sunny 52 11.3 32 0 46 46 Calm 29.94 1014 10 16.0934 0 0
4:15 pm 16:15 Sunny 52 10.9 32 0 47 47 N 3 6 29.94 1014 10 16.0934 0 0
4:35 pm 16:35 Sunny 52 11.1 32 0 47 47 Calm 29.94 1014 10 16.0934 0 0
4:55 pm 16:55 Sunny 51 10.6 33 0.5 50 50 Calm 29.91 1013 10 16.0934 0 0
5:15 pm 17:15 Sunny 49 9.2 34 0.9 56 56 SE 6 9 29.91 1013 10 16.0934 0 0
5:35 pm 17:35 Sunny 46 8 32 0.2 58 58 SSE 6 9 29.94 1014 10 16.0934 0 0
5:55 pm 17:55 Clear 45 7 32 0 61 61 SSE 6 9 29.94 1014 10 16.0934 0 0
6:15 pm 18:15 Clear 44 6.5 31 -0.3 62 62 S 6 9 29.94 1014 10 16.0934 0 0
6:35 pm 18:35 Clear 41 5.2 31 -0.6 67 67 S 6 9 29.97 1015 10 16.0934 0 0
6:55 pm 18:55 Clear 40 4.7 31 -0.6 69 69 S 7 11 29.97 1015 10 16.0934 0 0
7:15 pm 19:15 Clear 39 4 31 -0.8 71 71 S 6 9 29.97 1015 10 16.0934 0 0
7:35 pm 19:35 Clear 38 3.6 30 -1 72 72 S 6 9 29.97 1015 10 16.0934 0 0
7:55 pm 19:55 Clear 38 3.6 30 -0.9 73 73 S 7 11 29.97 1015 10 16.0934 0 0
8:15 pm 20:15 Clear 38 3.5 31 -0.7 74 74 S 8 13 29.97 1015 10 16.0934 0 0
8:35 pm 20:35 Clear 37 3 30 -1 75 75 S 7 11 29.97 1015 10 16.0934 0 0
8:55 pm 20:55 Clear 40 4.2 32 -0.2 73 73 S 6 9 29.97 1015 10 16.0934 0 0
9:15 pm 21:15 Clear 40 4.3 31 -0.5 71 71 S 8 13 29.94 1014 10 16.0934 0 0
9:35 pm 21:35 Clear 40 4.2 31 -0.5 72 72 S 7 11 29.94 1014 10 16.0934 0 0
9:55 pm 21:55 Clear 39 4 31 -0.6 72 72 SSW 8 13 29.94 1014 10 16.0934 0 0
10:15 pm 22:15 Clear 38 3.6 31 -0.7 74 74 SSW 9 15 29.94 1014 10 16.0934 0 0
10:35 pm 22:35 Clear 38 3.4 31 -0.7 75 75 SSW 8 13 29.91 1013 10 16.0934 0 0
10:55 pm 22:55 Clear 39 3.7 31 -0.6 74 74 SSW 10 17 29.91 1013 10 16.0934 0 0
11:15 pm 23:15 Clear 39 3.8 31 -0.5 74 74 SSW 10 17 29.91 1013 10 16.0934 0 0
11:35 pm 23:35 Clear 38 3.2 31 -0.7 76 76 SSW 7 11 29.91 1013 10 16.0934 0 0
11:55 pm 23:55 Clear 38 3.5 31 -0.5 75 75 SSW 10 17 29.88 1012 10 16.0934 0 0

Powered by AerisWeather